Wautoma, WI

12:21 AM CST on November 23, 2017 (GMT -0600)
Wautoma

Weather History for KY50 - April, 2013

Change the Weather History Date:

Friday, April 5, 2013

  Actual Average (KPCZ) Record (KPCZ)
Temperature  
Mean Temperature 34 °F -  
Max Temperature 43 °F 50 °F 75 °F (2005)
Min Temperature 24 °F 29 °F 14 °F (1972)
Degree Days  
Heating Degree Days 32    
Moisture  
Dew Point 21 °F    
Average Humidity 63    
Maximum Humidity 96    
Minimum Humidity 40    
Precipitation  
Precipitation 0.00 in - - ()
Sea Level Pressure  
Sea Level Pressure 30.19 in    
Wind  
Wind Speed 6 mph (East)    
Max Wind Speed 10 mph    
Max Gust Speed -    
Visibility 8 miles    
Events Snow    
Averages and records for this station are not official NWS values.
T = Trace of Precipitation, MM = Missing Value Source: NWS Daily Summary

Daily Weather History Graph

Daily Weather History Graph

Search for Another Location

Airport or City:

Trip Planner

Search our weather history database for the weather conditions in past years. The results will help you decide how hot, cold, wet, or windy it might be!

Date:

Astronomy

Apr. 05, 2013 Rise Set
Actual Time 6:30 AM CDT 7:29 PM CDT
Civil Twilight 6:01 AM CDT 7:58 PM CDT
Nautical Twilight 5:26 AM CDT 8:34 PM CDT
Astronomical Twilight 4:49 AM CDT 9:11 PM CDT
Moon 3:47 AM CDT (4/5) 2:44 PM CDT (4/5)
Length of Visible Light 13h 57m
Length of Day
12h 58m
Waning Crescent, 23% of the Moon is Illuminated
Apr 5
Waning Crescent
Apr 10
New
Apr 18
First Quarter
Apr 25
Full
May 2
Last Quarter

Hourly Weather History & Observations

Time (CDT) Temp. Windchill Dew Point Humidity Pressure Visibility Wind Dir Wind Speed Gust Speed Precip Events Conditions
12:56 AM 35.6 °F 31.7 °F 17.6 °F 48% 30.09 in 10.0 mi North 4.6 mph - N/A   Clear
1:56 AM 29.1 °F 24.1 °F 19.0 °F 66% 30.12 in 10.0 mi NNW 4.6 mph - N/A   Clear
2:56 AM 27.1 °F 21.8 °F 20.1 °F 75% 30.14 in 10.0 mi NNW 4.6 mph - N/A   Clear
3:56 AM 28.0 °F 22.8 °F 18.1 °F 66% 30.15 in 10.0 mi North 4.6 mph - N/A   Clear
4:56 AM 25.2 °F 20.9 °F 20.1 °F 81% 30.18 in 10.0 mi NNW 3.5 mph - N/A   Clear
5:56 AM 25.2 °F 20.9 °F 18.1 °F 75% 30.21 in 10.0 mi NNW 3.5 mph - N/A   Clear
6:56 AM 24.1 °F 19.7 °F 18.1 °F 78% 30.23 in 10.0 mi North 3.5 mph - N/A   Clear
7:56 AM 30.0 °F 24.1 °F 19.0 °F 64% 30.26 in 10.0 mi NNE 5.8 mph - N/A   Clear
8:56 AM 32.0 °F 23.6 °F 19.0 °F 59% 30.27 in 10.0 mi ENE 10.4 mph - N/A   Clear
9:56 AM 33.8 °F 30.8 °F 17.6 °F 52% 30.26 in 10.0 mi Variable 3.5 mph - N/A   Clear
10:56 AM 34.9 °F - 18.1 °F 51% 30.27 in 10.0 mi Calm Calm - N/A   Clear
11:56 AM 36.9 °F 30.7 °F 19.0 °F 49% 30.26 in 10.0 mi East 8.1 mph - N/A   Clear
12:56 PM 39.2 °F 35.0 °F 17.6 °F 42% 30.23 in 10.0 mi Variable 5.8 mph - N/A   Clear
1:56 PM 39.9 °F 37.8 °F 17.1 °F 40% 30.23 in 10.0 mi Variable 3.5 mph - N/A   Clear
2:56 PM 41.9 °F 37.5 °F 21.0 °F 43% 30.21 in 10.0 mi SSE 6.9 mph - N/A   Clear
3:56 PM 43.0 °F 39.5 °F 20.1 °F 40% 30.19 in 10.0 mi SSE 5.8 mph - N/A   Mostly Cloudy
4:56 PM 41.9 °F 37.5 °F 20.1 °F 42% 30.19 in 10.0 mi SSE 6.9 mph - N/A   Mostly Cloudy
5:56 PM 41.0 °F 36.4 °F 20.1 °F 43% 30.19 in 10.0 mi ESE 6.9 mph - N/A   Scattered Clouds
6:56 PM 38.8 °F 32.6 °F 21.0 °F 49% 30.18 in 10.0 mi ESE 9.2 mph - N/A   Partly Cloudy
7:56 PM 36.9 °F 30.7 °F 19.0 °F 49% 30.17 in 10.0 mi East 8.1 mph - N/A   Mostly Cloudy
8:56 PM 36.0 °F 30.3 °F 18.1 °F 48% 30.17 in 10.0 mi ESE 6.9 mph - N/A   Partly Cloudy
9:56 PM 35.6 °F 28.6 °F 23.0 °F 60% 30.15 in 10.0 mi SE 9.2 mph - N/A   Mostly Cloudy
10:25 PM 33.8 °F 25.8 °F 24.8 °F 70% 30.15 in 10.0 mi SE 10.4 mph - N/A   Overcast
10:56 PM 32.0 °F 23.6 °F 26.1 °F 79% 30.18 in 2.5 mi SE 10.4 mph - 0.00 in Snow Light Snow
11:06 PM 30.2 °F 22.6 °F 26.6 °F 86% 30.15 in 1.5 mi ESE 8.1 mph - 0.00 in Snow Light Snow
11:13 PM 30.2 °F 23.4 °F 26.6 °F 86% 30.16 in 1.8 mi ESE 6.9 mph - 0.00 in Snow Light Snow
11:25 PM 30.2 °F 22.6 °F 28.4 °F 93% 30.16 in 1.0 mi SE 8.1 mph - 0.00 in Snow Light Snow
11:35 PM 30.2 °F 23.4 °F 28.4 °F 93% 30.16 in 1.2 mi ESE 6.9 mph - 0.00 in Snow Light Snow
11:56 PM 29.1 °F 22.1 °F 28.0 °F 96% 30.17 in 1.0 mi East 6.9 mph - 0.00 in Snow Light Snow